Regional Weather Roundup
Issued by NWS

Home | Current Version | Previous Version | Text Only | Print | Product List | Glossary On
Versions: 1 2 3 4 5 6 7 8 9 10 11 12 13 14 15 16 17 18 19 20 21 22 23 24 25 26 27 28 29 30 31 32 33 34 35 36 37 38 39 40 41 42 43 44 45 46 47 48 49 50
534
ASUS44 KJAN 301803
RWRMS

MISSISSIPPI HOURLY WEATHER ROUNDUP
NATIONAL WEATHER SERVICE JACKSON MS
100 PM CDT TUE SEP 30 2014

NOTE: "FAIR: INDICATES FEW OR NO CLOUDS BELOW 12,000 FEET WITH NO
SIGNIFICANT WEATHER AND/OR OBSTRUCTIONS TO VISIBILITY.

MSZ001>002-007>008-010>013-018>021-025>028-034>036-301900-
NORTHWEST MISSISSIPPI

CITY           SKY/WX    TMP DP  RH WIND       PRES   REMARKS
CLARKSDALE     FAIR      86  59  39 W5        29.92F
CLEVELAND      FAIR      88  59  38 CALM      29.90F
GREENWOOD      CLOUDY    87  62  43 E3        29.91F
6HR MIN TEMP:  60; 6HR MAX TEMP:  87;

GREENVILLE     MOSUNNY   86  58  38 VRB5      29.90F
6HR MIN TEMP:  61; 6HR MAX TEMP:  88;

GRENADA        MOCLDY    86  61  42 S8        29.92F
OLIVE BRANCH   PTSUNNY   84  61  45 CALM      29.93F
OXFORD         FAIR      82  59  44 NW3       29.94F
TUNICA         PTCLDY    86  59  39 CALM      29.92F
$$

MSZ003>006-009-014>017-022>024-029>033-037>039-301900-
NORTHEAST MISSISSIPPI

CITY           SKY/WX    TMP DP  RH WIND       PRES   REMARKS
COLUMBUS AFB   MOSUNNY   84  64  50 VRB1      29.93F
6HR MIN TEMP:  61; 6HR MAX TEMP:  84;

CORINTH        FAIR      84  59  42 VRB6      29.93F
GOLDN TRIANGLE PTSUNNY   82  63  51 SE8       29.94F
STARKVILLE     MOCLDY    82  63  51 S3        29.93F
TUPELO         PTSUNNY   85  61  44 S6        29.93F
6HR MIN TEMP:  61; 6HR MAX TEMP:  86;

$$

MSZ040-058-301900-
CENTRAL MISSISSIPPI

CITY           SKY/WX    TMP DP  RH WIND       PRES   REMARKS
JACKSON INTL   PTSUNNY   85  65  51 VRB3      29.91F
6HR MIN TEMP:  64; 6HR MAX TEMP:  86;

JACKSON HAWKNS MOSUNNY   87  67  51 NE9       29.91F HX  90
6HR MIN TEMP:  67; 6HR MAX TEMP:  88;

MERIDIAN KEY   SUNNY     83  62  49 N6        29.93F
6HR MIN TEMP:  62; 6HR MAX TEMP:  84; 6HR PCP: TRACE;

MERIDIAN NAS   MOSUNNY   85  61  44 N8        29.93F
6HR MIN TEMP:  63; 6HR MAX TEMP:  85;

RAYMOND        MOCLDY    86  82  89 E7        29.91F HX 105
VICKSBURG      PTSUNNY   84  66  54 E6        29.90F
6HR MIN TEMP:  62; 6HR MAX TEMP:  88;

$$

MSZ059>079-301900-
SOUTH MISSISSIPPI

CITY           SKY/WX    TMP DP  RH WIND       PRES   REMARKS
BROOKHAVEN     FAIR      82  68  61 NE3       29.93F
COLUMBIA       FAIR      82  70  65 E7        29.90F
HATTIESBURG    SUNNY     83  69  62 CALM      29.92F
6HR MIN TEMP:  68; 6HR MAX TEMP:  83;

MCCOMB         CLOUDY    83  67  58 S3        29.91F
6HR MIN TEMP:  69; 6HR MAX TEMP:  86;

NATCHEZ        SUNNY     84  70  61 E6        29.91F
6HR MIN TEMP:  66; 6HR MAX TEMP:  84;

PINE BELT      MOSUNNY   82  66  57 E5        29.94S
$$

MSZ080>082-301900-
COASTAL MISSISSIPPI

CITY           SKY/WX    TMP DP  RH WIND       PRES   REMARKS
BAY ST LOUIS   PTSUNNY   82  68  61 SE7       29.90F
BILOXI         SUNNY     84  72  67 SE7       29.90F
6HR MIN TEMP:  71; 6HR MAX TEMP:  84;

PASCAGOULA     CLOUDY    79  70  74 N7        29.91F
6HR MIN TEMP:  69; 6HR MAX TEMP:  80;

GULFPORT       PTSUNNY   82  72  71 SE8       29.89F
6HR MIN TEMP:  73; 6HR MAX TEMP:  83;

$$



USA.gov is the U.S. government's official web portal to all federal, state and local government web resources and services.